Theta_e
302 302 303 303 303 303 302 302 301 300 300 300 299 299 299 299 299 299 299 299 300 300 299 299 299 300 300 300 301 301 301 299 297 297 297 297 297 297 296 295 295 295
300 300 301 301 302 302 302 303 302 302 301 300 300 299 299 298 298 299 299 299 299 299 299 299 299 299 299 300 300 300 300 299 298 297 296 296 297 297 296 296 295 295
299 299 299 299 300 300 301 302 302 302 302 302 301 300 300 299 299 299 299 299 298 298 299 299 299 299 299 299 299 299 299 299 298 297 296 296 296 296 296 296 295 294
297 298 298 298 298 298 299 299 300 301 301 301 301 301 301 300 300 299 299 299 299 298 298 298 298 299 299 299 299 299 299 299 298 297 296 296 296 296 296 296 295 295
295 296 296 296 297 297 297 298 298 298 299 300 300 301 301 301 300 300 299 299 299 298 298 297 297 297 298 298 299 299 299 299 299 298 297 297 296 296 296 296 295 295
294 294 294 294 295 295 296 297 297 297 297 298 298 299 300 300 300 300 300 299 298 298 298 297 297 297 297 297 298 298 299 299 299 299 298 298 297 296 296 296 295 295
292 292 293 293 293 293 294 295 295 296 296 297 297 298 298 299 299 299 299 299 299 298 298 297 297 297 296 296 296 297 297 298 298 298 298 299 298 297 296 296 295 295
291 291 291 291 292 292 292 292 293 293 294 295 296 296 297 297 298 298 298 298 298 298 298 297 297 296 296 296 296 296 296 296 297 297 298 299 299 299 298 297 296 295
290 290 290 290 291 291 291 291 291 291 292 292 293 294 295 295 296 297 298 298 298 297 297 297 296 296 296 295 295 295 295 295 295 295 296 297 298 299 299 298 297 297
290 290 289 289 289 290 290 290 290 290 290 291 291 292 292 293 294 295 296 297 297 298 297 297 296 296 295 294 294 294 295 295 295 295 295 295 296 297 297 298 297 298
289 289 289 288 288 288 288 289 289 289 289 289 289 290 290 291 291 292 293 294 295 297 297 297 297 296 295 294 294 293 293 294 294 294 294 294 295 295 296 296 296 297
287 288 288 288 288 287 287 287 287 288 288 288 288 288 288 289 289 289 290 291 292 293 295 296 297 297 296 295 294 294 293 293 293 293 294 294 295 295 295 295 295 296
287 287 287 287 287 287 287 287 287 286 287 287 287 287 287 287 287 287 288 288 289 290 291 293 294 295 296 296 295 295 294 293 293 293 293 294 294 295 295 295 295 295
287 287 287 287 287 287 287 287 287 286 286 286 286 287 287 287 286 286 287 287 287 287 288 289 290 291 293 294 295 295 295 294 294 293 293 293 294 294 294 294 295 295
287 286 287 286 287 286 286 286 286 286 286 286 286 286 286 286 286 286 286 286 286 286 286 286 287 288 289 290 292 293 294 294 294 294 294 294 294 294 294 294 294 294
286 286 286 286 286 286 286 286 286 286 286 286 286 286 286 286 286 286 286 286 286 286 286 286 286 286 286 287 288 290 291 293 294 294 294 294 294 294 295 295 295 294
286 286 286 286 286 286 286 286 286 286 286 286 286 286 286 286 286 286 286 286 286 286 286 286 286 286 286 286 286 286 287 289 292 293 293 293 293 293 294 294 295 294
286 286 286 286 286 286 286 286 286 286 286 286 286 286 286 286 286 286 286 286 286 286 286 286 286 286 286 286 286 285 285 286 288 290 292 293 293 293 293 293 293 293
286 286 286 286 286 286 286 286 286 286 286 286 286 286 286 286 286 286 286 286 285 285 285 286 286 286 286 286 286 286 285 285 285 287 290 292 293 293 292 293 293 293
285 285 285 285 285 285 285 285 285 285 286 286 286 286 286 286 286 285 285 285 285 285 285 285 285 285 285 286 286 286 285 285 285 285 286 289 291 292 292 292 293 292
284 284 284 285 285 285 285 285 285 285 285 285 285 285 285 285 285 285 285 285 285 285 285 285 285 285 285 285 285 285 285 285 285 285 285 286 288 290 292 292 292 292
284 284 284 284 284 284 284 284 284 284 284 284 284 285 285 285 285 285 285 285 285 285 285 285 285 285 285 285 285 285 285 285 285 285 284 284 285 287 290 291 292 291
282 282 282 282 282 282 283 283 284 284 284 284 284 284 284 284 284 284 285 285 285 285 285 285 285 285 285 285 285 285 285 285 285 284 284 284 284 285 287 289 291 291
281 280 280 280 280 280 280 281 281 282 282 283 283 283 284 283 283 283 284 284 284 284 284 284 284 285 285 284 284 285 284 284 284 284 284 284 284 284 285 287 289 291
280 279 279 278 278 278 278 278 278 278 278 279 279 280 282 283 282 282 283 283 283 284 284 284 284 284 284 284 284 284 284 284 284 284 284 284 284 284 284 285 287 290
279 278 278 277 277 277 277 276 276 276 276 277 276 276 278 279 280 280 281 282 283 283 284 284 284 284 284 284 284 284 284 284 284 284 284 284 284 284 284 285 286 288
Wind_Speed
27 26 26 25 25 24 22 21 20 18 18 17 18 18 19 21 23 23 21 21 22 23 23 24 26 27 29 32 37 42 47 49 50 50 49 49 49 50 52 53 54 53
26 26 25 25 24 24 24 23 23 22 20 19 18 18 19 19 22 23 21 20 20 21 21 23 24 25 27 28 31 36 41 45 48 49 48 50 50 50 51 52 54 55
25 25 25 25 24 24 23 23 22 22 22 22 20 19 19 20 20 21 21 20 20 19 20 21 23 24 25 26 28 31 35 39 44 47 48 50 50 50 50 51 53 55
24 24 23 23 23 23 23 23 23 23 22 23 22 22 21 21 21 21 22 22 21 20 20 21 22 22 23 24 26 29 31 34 39 43 47 50 51 51 50 51 53 55
24 24 24 23 23 23 23 22 23 23 23 24 24 24 24 23 22 22 22 23 23 23 22 22 22 22 23 23 25 26 27 30 34 38 44 48 50 50 50 51 53 55
23 23 23 23 23 23 23 23 23 23 23 23 24 24 25 25 24 23 22 23 23 24 23 23 24 24 24 24 25 26 26 28 29 32 38 44 47 50 51 51 53 55
23 23 24 24 24 23 23 23 22 23 23 23 23 23 23 24 25 25 24 23 23 24 24 23 24 25 26 26 27 28 28 28 28 29 33 37 42 47 50 52 54 55
22 23 23 24 24 24 24 24 23 23 23 23 23 23 23 23 23 23 24 24 23 24 25 25 24 24 25 27 29 30 30 30 30 31 33 34 36 40 46 50 53 55
23 23 23 23 24 24 25 25 25 25 25 25 25 24 24 23 23 22 22 22 23 23 24 25 27 26 26 26 28 30 31 31 31 32 34 35 36 37 39 44 49 53
25 25 24 24 24 25 25 25 25 26 26 27 27 26 26 25 25 24 22 22 22 22 22 23 24 27 28 28 28 29 30 31 31 32 34 35 37 38 38 39 43 49
27 28 27 27 26 26 26 26 26 26 26 27 27 27 28 28 27 26 25 24 23 23 23 22 22 23 26 28 29 30 30 30 31 32 34 35 36 38 38 39 41 45
28 29 29 30 29 29 28 28 28 27 27 27 27 27 27 28 28 28 27 26 24 23 23 24 23 22 22 25 28 30 32 32 31 32 34 35 36 38 38 39 41 44
29 29 30 30 30 31 31 31 31 31 30 28 28 27 27 27 28 29 29 28 27 26 24 24 25 25 24 23 24 26 29 32 32 33 34 35 37 38 38 38 40 42
30 31 31 31 31 31 32 32 33 33 33 32 31 29 29 29 29 29 30 30 29 28 28 26 26 26 26 26 25 25 25 28 30 32 33 35 36 38 38 39 40 41
29 31 32 32 33 33 33 33 33 33 34 35 35 34 33 32 31 31 31 31 31 31 31 30 29 28 27 26 27 27 27 26 27 29 31 33 35 37 38 39 41 42
29 30 31 33 34 35 35 35 36 36 36 36 37 37 37 36 35 34 33 33 33 33 33 33 33 31 30 28 28 28 29 29 29 29 30 32 34 36 38 40 41 42
32 33 33 34 35 36 36 37 37 38 38 39 40 40 40 40 40 39 38 37 36 36 36 36 36 35 34 32 31 29 29 30 31 31 30 32 34 36 38 40 42 42
35 36 36 36 36 37 38 38 39 39 39 40 41 42 43 44 44 45 44 43 41 40 39 38 39 38 37 36 34 33 32 31 32 32 33 33 35 37 39 40 42 44
37 37 38 38 38 38 39 40 40 41 41 41 42 43 44 46 47 48 49 49 48 47 45 44 42 40 39 39 38 36 35 34 34 34 34 35 35 37 39 40 41 44
40 40 40 40 40 40 41 41 42 42 43 43 43 44 45 46 48 49 51 52 52 52 52 51 49 46 43 41 40 39 38 36 36 37 36 36 36 37 39 41 42 43
43 43 44 44 44 43 43 44 45 45 46 46 46 47 47 48 49 50 52 54 55 55 56 55 55 53 50 46 43 41 40 39 39 39 39 39 39 38 39 41 43 43
47 47 48 48 49 50 50 49 49 50 50 51 51 52 51 51 51 51 52 53 55 57 58 59 58 57 56 53 49 45 43 42 41 41 41 42 42 41 41 41 42 44
49 49 49 49 51 53 55 56 57 57 57 57 57 58 57 57 57 56 55 55 56 57 59 61 62 60 58 57 55 51 48 46 45 44 43 44 44 43 43 42 43 44
49 48 49 50 51 53 55 58 60 60 61 63 63 64 64 63 62 62 61 59 59 59 59 61 64 63 62 61 59 56 53 50 49 47 45 45 45 45 44 44 44 45
52 51 52 52 53 54 55 56 58 60 61 62 63 64 68 69 68 68 68 67 65 64 63 63 64 65 65 65 63 61 58 54 51 48 47 46 46 45 45 45 45 45
57 56 55 54 54 55 56 57 59 60 60 60 59 61 65 69 69 68 69 71 71 70 68 67 67 68 68 68 68 66 63 58 52 49 48 48 47 45 44 45 46 45
Wind_Direction
22 20 19 17 14 11 5 358 350 340 331 323 316 312 309 309 309 311 312 311 309 304 299 293 287 281 275 268 262 257 254 252 250 249 247 245 243 242 241 240 240 240
18 17 16 16 14 12 10 6 1 356 349 340 328 317 309 305 304 305 306 306 304 302 300 296 291 287 281 276 269 264 259 255 252 250 248 247 245 243 243 242 241 241
18 16 15 14 13 11 9 6 4 2 359 354 348 337 325 315 308 303 301 299 298 298 298 296 294 291 287 283 277 269 264 259 255 252 249 248 247 245 244 243 243 242
13 13 12 12 11 10 8 6 3 2 1 359 358 354 347 337 327 317 309 302 298 296 295 294 293 291 289 286 281 275 270 264 259 255 251 249 248 247 246 244 244 243
8 8 7 7 6 6 5 5 4 2 0 359 358 356 355 352 345 336 326 317 308 300 296 294 292 290 287 285 282 278 275 269 263 258 255 253 250 248 247 245 245 245
4 3 3 2 2 1 0 0 0 359 358 357 356 354 354 354 353 348 341 331 321 313 304 297 293 291 288 286 282 279 276 273 269 264 259 257 255 252 249 247 246 246
0 359 358 357 357 356 356 356 355 354 352 352 353 353 351 350 350 351 349 341 332 323 316 307 299 293 291 289 285 282 279 276 274 269 265 262 259 256 253 250 249 248
356 355 353 352 352 350 350 350 350 349 349 347 348 349 348 347 346 346 347 346 340 330 323 317 310 301 295 291 289 287 283 280 278 274 269 266 263 260 257 254 252 251
351 351 349 347 345 345 345 345 345 345 345 344 345 346 345 344 342 340 340 340 341 337 330 322 315 309 302 295 292 289 287 284 282 278 274 271 268 265 262 258 256 254
343 344 345 344 342 340 340 340 341 342 342 342 342 341 341 341 339 337 335 332 332 333 332 327 319 311 305 300 296 292 289 287 285 282 277 274 272 270 267 264 260 258
340 338 338 340 341 341 339 336 335 336 338 340 339 337 336 335 335 335 334 332 329 326 325 325 323 315 306 300 297 294 291 288 285 283 280 277 274 271 269 268 264 262
339 337 335 335 336 338 338 338 337 335 335 336 336 336 335 334 332 333 332 332 330 327 322 319 318 316 310 303 299 295 292 290 286 283 280 279 276 272 271 269 267 264
334 334 333 332 331 331 332 334 335 335 334 333 331 330 330 331 331 331 330 329 329 327 325 321 317 315 314 311 304 297 293 290 287 283 280 278 276 274 273 271 267 266
328 329 329 328 328 327 327 327 328 329 329 329 329 327 325 325 325 325 325 325 326 325 325 324 321 318 318 316 313 307 298 290 286 283 281 279 276 274 273 271 268 266
321 323 323 323 323 323 323 322 322 322 322 322 323 323 323 322 320 320 320 320 320 320 321 322 322 321 321 319 316 315 312 304 293 284 280 279 277 274 271 269 266 265
316 316 317 316 317 318 318 319 318 318 317 317 316 316 316 317 317 316 316 316 315 315 316 316 317 318 320 319 318 317 316 313 306 295 284 278 276 275 273 269 266 264
314 314 313 312 312 312 312 313 313 313 313 313 313 312 311 311 312 312 312 312 311 311 310 310 311 313 315 318 318 318 316 314 310 305 295 284 276 273 272 271 269 267
314 313 311 309 308 308 307 307 308 308 308 309 309 309 309 308 308 308 309 309 308 307 306 305 305 307 309 311 314 316 316 314 310 307 302 294 283 275 271 270 270 269
313 311 309 308 307 305 304 304 304 303 303 304 304 304 305 305 305 305 306 306 306 305 304 303 302 301 303 305 307 310 312 312 309 305 302 298 292 283 275 270 268 269
313 311 308 307 306 304 303 302 301 300 300 300 300 299 299 299 300 301 301 302 303 302 303 302 301 300 300 300 301 303 305 307 307 305 301 298 295 291 283 275 269 267
311 310 309 307 305 304 302 300 299 298 298 297 296 295 295 294 294 295 296 297 298 298 299 299 298 299 299 298 297 298 300 302 303 303 301 298 295 292 288 283 275 269
311 311 310 308 307 305 303 301 300 298 297 296 295 294 292 291 291 290 290 291 292 293 295 295 295 296 297 297 297 296 297 298 299 299 299 297 295 291 289 286 282 275
311 310 309 307 306 305 303 302 301 299 297 296 295 293 292 291 289 288 287 287 287 288 289 291 292 292 293 294 294 294 295 295 295 296 295 294 293 291 288 285 282 279
308 306 305 304 303 301 300 300 300 299 298 297 295 293 291 290 289 287 286 284 284 284 284 286 287 288 289 290 290 290 291 291 291 292 291 291 290 289 287 284 281 280
306 304 303 302 300 299 298 297 297 297 297 297 296 294 293 292 290 288 286 284 282 281 281 282 283 284 285 286 286 287 286 287 287 287 287 287 287 286 286 283 280 279
305 303 302 300 299 298 298 297 297 297 297 296 295 293 293 293 291 288 287 285 283 281 279 279 279 279 281 282 283 283 283 283 282 281 282 284 284 282 281 280 279 276